Flag for Brazil Weather past 2 weeks in Fortaleza, Ceará, Brazil

Now
84 °F

Broken clouds.


Feels Like: 87 °F
Forecast: 75 / 84 °F
Wind: 15 mph from East

Location: Fortaleza Aeropor-To

Current Time: Jul 22, 2014 at 8:57:08 PM

Latest Report: Jul 22, 2014 at 2:00 PM


Visibility: N/A

Pressure: 29.95 "Hg

Humidity: 55%

Dew point: 66 °F

Location of FortalezaLocation

Historic Weather in Fortaleza — Graph

°F

Fortaleza temperature yesterday

Maximum temperature yesterday: 86 °F (at 11:00 AM)
Minimum temperature yesterday: 75 °F (at 5:00 AM)
Average temperature yesterday: 80 °F

Past Weeks' High & Low Weather Summary

 TemperatureHumidityPressure
High88 °F (Jul 11, 1:00 PM)100% (Jul 13, 3:00 AM)30.07 "Hg (Jul 13, 3:00 AM)
Low73 °F (Jul 11, 6:00 AM)40% (Jul 11, 11:00 AM)29.86 "Hg (Jul 10, 2:00 PM)
Average80 °F68%29.99 "Hg
* Reported Jul 7 2:00 PM — Jul 22 2:00 PM, Fortaleza, Weather by CustomWeather, © 2014

Note: Actual official high and low records may vary slightly from our data, if they occured in-between our weather recording intervals... More about our weather records

Advertising

Fortaleza weather history for previous 24 hours

 ConditionsComfort  
Time TempWeatherWind HumidityBarometerVisibility
2:00 PM
Jul 22
84 °FBroken clouds.15 mph55%29.95 "HgN/A
1:00 PM82 °FBroken clouds.13 mph58%29.98 "HgN/A
12:00 PM82 °FOvercast.13 mph58%30.01 "HgN/A
11:00 AM81 °FBroken clouds.16 mph62%30.04 "HgN/A
10:00 AM81 °FBroken clouds.13 mph66%30.04 "HgN/A
9:00 AM77 °FPartly sunny.10 mph79%30.04 "HgN/A
8:00 AM75 °FBroken clouds.10 mph83%30.04 "HgN/A
7:00 AM75 °FOvercast.15 mph83%30.01 "HgN/A
6:00 AM77 °FBroken clouds.15 mph79%29.98 "HgN/A
5:00 AM77 °FPassing clouds.14 mph79%29.98 "HgN/A
4:00 AM77 °FPassing clouds.16 mph83%29.98 "HgN/A
3:00 AM79 °FPassing clouds.14 mph74%29.98 "HgN/A
2:00 AM79 °FPassing clouds.13 mph74%29.98 "HgN/A
1:00 AM79 °FPassing clouds.10 mph74%29.98 "HgN/A
12:00 AM79 °FPassing clouds.14 mph79%30.01 "HgN/A
11:00 PM
Jul 21
79 °FPassing clouds.17 mph74%30.01 "HgN/A
10:00 PM79 °FClear.14 mph74%30.01 "Hg10 mi
9:00 PM79 °FClear.10 mph74%30.01 "Hg10 mi
8:00 PM81 °FClear.10 mph70%29.98 "Hg10 mi
Weather by CustomWeather, © 2014

See weather overviewHow to use our weather pages